リニア彗星

P/2003 U2 ( LINEAR )

English version
Home page
Updated on March 10, 2004

---------------------------------------------------------------------

・ プロフィール

発見日 2003年10月19日
発見光度 18.3等
発見者 Lincoln Laboratory Near-Earth Asteroid Research project

・ 軌道要素

T 2003 Dec. 4.8815 TT                                   MPC
q   1.710452             (2000.0)            P               Q
n   0.1026695      Peri.  177.3228      +0.9973508      -0.0558325
a   4.516912       Node   186.4581      +0.0566291      +0.9982680
e   0.621323       Incl.   24.4910      +0.0456561      -0.0185392
P   9.60
>From 108 observations 2003 Sept. 19-Dec. 15.

・ 星図

・ 光度変化

        m1 = 14.5 + 5 logΔ + 10.0 log r

---------------------------------------------------------------------

軌道要素はM.P.E.C. 2003-Y08に掲載されたものです。
星図は StellaNavigator Ver.2.0 for Windows (アストロアーツ 編著 / アスキー出版局刊) で作成したものです。
光度グラフはComet for Windowsで作成したものです。

---------------------------------------------------------------------

Copyright(C) Seiichi Yoshida (comet@aerith.net). All rights reserved.